Regional Weather Roundup
Issued by NWS Goodland, KS

Home | Current Version | Previous Version | Graphics & Text | Print | Product List | Glossary On
Versions: 1 2 3 4 5 6 7 8 9 10 11 12 13 14 15 16 17 18 19 20 21 22 23 24 25 26 27 28 29 30 31 32 33 34 35 36 37 38 39 40 41 42 43 44 45 46 47 48 49 50
000
ASUS43 KGLD 250659
RWRGLD

GOODLAND FORECAST AREA HOURLY WEATHER ROUNDUP
NATIONAL WEATHER SERVICE GOODLAND KS
1200 AM MST SUN JAN 25 2015

...OFFICIAL OBSERVATIONS...

CITY           SKY/WX    TMP DP  RH WIND       PRES   REMARKS
GOODLAND KS    CLOUDY    41  29  62 NW26G35   30.03S
HILL CITY KS   PTCLDY    46  32  58 NW23G33   29.92R
IMPERIAL NEB   CLEAR     39  27  62 NW21G28   29.99R
MCCOOK NEB     CLEAR     42  30  62 NW18G30   29.93S
AKRON CO       MOCLDY    36  27  69 NW25G36   30.09F
BURLINGTON CO  CLOUDY    38  27  64 NW22      30.07F
LIMON CO       FLURRIES  33  27  78 NW18      30.15F
$$

...UNOFFICIAL OBSERVATIONS...

CITY           SKY/WX    TMP DP  RH WIND       PRES   REMARKS
COLBY KS       CLEAR     41  32  70 W23       29.99S
GOVE KS          N/A     45  32  60 MISG        N/A
NORTON KS      MOCLDY    43  28  56 W24G30    29.89S
SHARON SPRINGS   N/A     42  30  61 NW21G32     N/A
KIT CARSON CO    N/A     40  26  57 MISG        N/A
YUMA CO          N/A     39  28  65 N26         N/A
$$


USA.gov is the U.S. government's official web portal to all federal, state and local government web resources and services.